Time,TemperatureF,DewpointF,PressureIn,WindDirection,WindDirectionDegrees,WindSpeedMPH,WindSpeedGustMPH,Humidity,HourlyPrecipIn,Conditions,Clouds,dailyrainin,SoftwareType,DateUTC
2013-04-18 00:04:00,57.2,53.3,27.23,West,270,0.0,0.0,87,0.00,,,0.00,WSDL version 420,2013-04-18 04:04:00,
2013-04-18 00:09:00,57.2,53.6,27.23,West,270,0.0,0.0,87,0.00,,,0.00,WSDL version 420,2013-04-18 04:09:00,
2013-04-18 00:14:00,57.2,53.3,27.23,WNW,298,0.0,0.0,88,0.00,,,0.00,WSDL version 420,2013-04-18 04:14:00,
2013-04-18 00:19:00,57.1,53.5,27.23,NW,320,0.0,0.0,88,0.00,,,0.00,WSDL version 420,2013-04-18 04:19:00,
2013-04-18 00:24:00,57.1,53.5,27.23,NW,313,0.0,0.0,88,0.00,,,0.00,WSDL version 420,2013-04-18 04:24:00,
2013-04-18 00:29:00,57.0,53.4,27.23,SSW,203,0.0,0.0,88,0.00,,,0.00,WSDL version 420,2013-04-18 04:29:00,
2013-04-18 00:34:00,57.0,53.4,27.20,SSW,203,0.0,0.0,88,0.00,,,0.00,WSDL version 420,2013-04-18 04:34:00,
2013-04-18 00:39:00,56.9,53.2,27.20,East,90,0.0,0.0,88,0.00,,,0.00,WSDL version 420,2013-04-18 04:39:00,
2013-04-18 00:44:00,56.8,53.1,27.20,SE,135,0.0,0.0,88,0.00,,,0.00,WSDL version 420,2013-04-18 04:44:00,
2013-04-18 00:49:00,56.8,53.2,27.20,SE,133,0.0,0.0,88,0.00,,,0.00,WSDL version 420,2013-04-18 04:49:00,
2013-04-18 00:54:00,56.7,53.3,27.20,NE,39,0.0,0.0,89,0.00,,,0.00,WSDL version 420,2013-04-18 04:54:00,
2013-04-18 00:59:00,56.6,53.0,27.20,East,90,0.2,1.3,88,0.00,,,0.00,WSDL version 420,2013-04-18 04:59:00,
2013-04-18 01:04:00,56.5,53.0,27.20,East,84,0.0,1.3,89,0.00,,,0.00,WSDL version 420,2013-04-18 05:04:00,
2013-04-18 01:09:00,56.3,53.1,27.20,ESE,113,0.0,0.0,89,0.00,,,0.00,WSDL version 420,2013-04-18 05:09:00,
2013-04-18 01:14:00,56.2,53.0,27.20,ESE,113,0.0,0.0,90,0.00,,,0.00,WSDL version 420,2013-04-18 05:14:00,
2013-04-18 01:19:00,56.1,53.2,27.20,SE,124,0.0,0.0,90,0.00,,,0.00,WSDL version 420,2013-04-18 05:19:00,
2013-04-18 01:24:00,56.1,53.1,27.20,ENE,68,0.0,0.0,90,0.00,,,0.00,WSDL version 420,2013-04-18 05:24:00,
2013-04-18 01:29:00,56.1,53.2,27.20,SSE,158,0.0,0.0,90,0.00,,,0.00,WSDL version 420,2013-04-18 05:29:00,
2013-04-18 01:34:00,56.0,53.2,27.20,WSW,253,0.0,0.0,90,0.00,,,0.00,WSDL version 420,2013-04-18 05:34:00,
2013-04-18 01:39:00,56.1,53.2,27.20,SW,225,0.0,0.0,90,0.00,,,0.00,WSDL version 420,2013-04-18 05:39:00,
2013-04-18 01:44:00,56.1,53.2,27.20,WNW,285,0.0,0.0,90,0.00,,,0.00,WSDL version 420,2013-04-18 05:44:00,
2013-04-18 01:49:00,55.9,53.1,27.20,West,278,0.0,0.0,90,0.00,,,0.00,WSDL version 420,2013-04-18 05:49:00,
2013-04-18 01:54:00,55.9,53.1,27.20,West,275,0.0,0.0,90,0.00,,,0.00,WSDL version 420,2013-04-18 05:54:00,
2013-04-18 01:59:00,55.9,53.0,27.20,SW,235,0.5,3.6,90,0.00,,,0.00,WSDL version 420,2013-04-18 05:59:00,
2013-04-18 02:04:00,56.2,53.3,27.20,SE,129,0.0,3.6,90,0.00,,,0.00,WSDL version 420,2013-04-18 06:04:00,
2013-04-18 02:09:00,55.9,53.0,27.20,SE,141,0.9,2.5,90,0.00,,,0.00,WSDL version 420,2013-04-18 06:09:00,
2013-04-18 02:14:00,55.6,52.5,27.20,South,186,0.0,2.5,89,0.00,,,0.00,WSDL version 420,2013-04-18 06:14:00,
2013-04-18 02:19:00,55.7,52.7,27.17,ESE,104,0.9,2.7,89,0.00,,,0.00,WSDL version 420,2013-04-18 06:19:00,
2013-04-18 02:24:00,55.7,52.5,27.17,East,93,1.1,2.9,90,0.00,,,0.00,WSDL version 420,2013-04-18 06:24:00,
2013-04-18 02:29:00,55.9,53.0,27.17,ENE,75,0.9,2.9,90,0.00,,,0.00,WSDL version 420,2013-04-18 06:29:00,
2013-04-18 02:34:00,55.7,52.8,27.17,East,85,0.0,2.9,90,0.00,,,0.00,WSDL version 420,2013-04-18 06:34:00,
2013-04-18 02:39:00,55.7,52.8,27.17,SSE,165,0.0,2.7,90,0.00,,,0.00,WSDL version 420,2013-04-18 06:39:00,
2013-04-18 02:44:00,55.6,52.7,27.17,North,358,0.4,2.5,90,0.00,,,0.00,WSDL version 420,2013-04-18 06:44:00,
2013-04-18 02:49:00,55.8,52.9,27.17,North,360,0.0,1.6,90,0.00,,,0.00,WSDL version 420,2013-04-18 06:49:00,
2013-04-18 02:54:00,55.9,53.0,27.17,ESE,118,0.0,0.0,90,0.00,,,0.00,WSDL version 420,2013-04-18 06:54:00,
2013-04-18 02:59:00,55.7,52.5,27.17,SSE,166,0.0,0.0,89,0.00,,,0.00,WSDL version 420,2013-04-18 06:59:00,
2013-04-18 03:04:00,55.5,52.3,27.20,NNW,343,0.0,0.0,89,0.00,,,0.00,WSDL version 420,2013-04-18 07:04:00,
2013-04-18 03:09:00,55.6,52.4,27.20,ENE,68,0.0,0.0,89,0.00,,,0.00,WSDL version 420,2013-04-18 07:09:00,
2013-04-18 03:14:00,55.5,52.3,27.20,North,360,0.0,0.0,89,0.00,,,0.00,WSDL version 420,2013-04-18 07:14:00,
2013-04-18 03:19:00,55.4,52.1,27.20,West,268,0.0,0.0,89,0.00,,,0.00,WSDL version 420,2013-04-18 07:19:00,
2013-04-18 03:24:00,55.4,52.4,27.20,WNW,290,0.0,0.0,90,0.00,,,0.00,WSDL version 420,2013-04-18 07:24:00,
2013-04-18 03:29:00,55.6,52.7,27.20,NNW,333,0.0,0.0,90,0.00,,,0.00,WSDL version 420,2013-04-18 07:29:00,
2013-04-18 03:34:00,55.6,52.7,27.20,NNW,332,0.0,2.5,90,0.00,,,0.00,WSDL version 420,2013-04-18 07:34:00,
2013-04-18 03:39:00,55.8,53.2,27.20,NW,305,0.0,2.5,91,0.00,,,0.00,WSDL version 420,2013-04-18 07:39:00,
2013-04-18 03:44:00,55.7,53.2,27.20,WSW,242,0.0,0.0,91,0.00,,,0.00,WSDL version 420,2013-04-18 07:44:00,
2013-04-18 03:49:00,55.6,53.0,27.20,NE,51,0.0,0.0,91,0.00,,,0.00,WSDL version 420,2013-04-18 07:49:00,
2013-04-18 03:54:00,55.6,52.8,27.20,NW,323,0.0,0.9,90,0.00,,,0.00,WSDL version 420,2013-04-18 07:54:00,
2013-04-18 03:59:00,55.5,52.6,27.20,NW,309,0.0,2.0,90,0.00,,,0.00,WSDL version 420,2013-04-18 07:59:00,
2013-04-18 04:04:00,55.4,52.5,27.20,WNW,290,0.0,2.5,90,0.00,,,0.00,WSDL version 420,2013-04-18 08:04:00,
2013-04-18 04:09:00,55.6,53.0,27.20,North,8,0.7,2.7,91,0.00,,,0.00,WSDL version 420,2013-04-18 08:09:00,
2013-04-18 04:14:00,55.5,52.8,27.20,ESE,103,0.0,2.7,90,0.00,,,0.00,WSDL version 420,2013-04-18 08:14:00,
2013-04-18 04:19:00,55.4,52.5,27.20,ENE,70,0.0,2.5,90,0.00,,,0.00,WSDL version 420,2013-04-18 08:19:00,
2013-04-18 04:24:00,55.6,53.0,27.20,NW,323,0.0,0.0,91,0.00,,,0.00,WSDL version 420,2013-04-18 08:24:00,
2013-04-18 04:29:00,55.7,53.2,27.20,SSW,203,0.0,0.0,91,0.00,,,0.00,WSDL version 420,2013-04-18 08:29:00,
2013-04-18 04:34:00,55.4,52.9,27.20,SW,214,0.0,0.0,91,0.00,,,0.00,WSDL version 420,2013-04-18 08:34:00,
2013-04-18 04:39:00,55.5,53.1,27.20,NNW,346,0.3,1.3,92,0.00,,,0.00,WSDL version 420,2013-04-18 08:39:00,
2013-04-18 04:44:00,55.5,53.1,27.20,WNW,290,0.0,1.6,91,0.00,,,0.00,WSDL version 420,2013-04-18 08:44:00,
2013-04-18 04:49:00,55.2,52.7,27.20,West,270,0.0,1.6,91,0.00,,,0.00,WSDL version 420,2013-04-18 08:49:00,
2013-04-18 04:54:00,55.2,52.7,27.20,WSW,248,0.0,0.0,91,0.00,,,0.00,WSDL version 420,2013-04-18 08:54:00,
2013-04-18 04:59:00,55.1,52.6,27.20,West,273,0.0,0.0,91,0.00,,,0.00,WSDL version 420,2013-04-18 08:59:00,
2013-04-18 05:04:00,55.0,52.5,27.20,West,273,0.0,0.0,91,0.00,,,0.00,WSDL version 420,2013-04-18 09:04:00,
2013-04-18 05:09:00,55.0,52.4,27.20,WNW,293,0.0,1.1,91,0.00,,,0.00,WSDL version 420,2013-04-18 09:09:00,
2013-04-18 05:14:00,54.9,52.3,27.20,SW,225,0.2,1.6,91,0.00,,,0.00,WSDL version 420,2013-04-18 09:14:00,
2013-04-18 05:19:00,54.8,52.3,27.20,WSW,248,0.0,1.6,91,0.00,,,0.00,WSDL version 420,2013-04-18 09:19:00,
2013-04-18 05:24:00,54.9,52.9,27.20,WNW,283,0.0,1.3,93,0.00,,,0.00,WSDL version 420,2013-04-18 09:24:00,
2013-04-18 05:29:00,54.8,52.9,27.20,West,275,0.0,0.0,93,0.00,,,0.00,WSDL version 420,2013-04-18 09:29:00,
2013-04-18 05:34:00,54.7,52.8,27.20,WNW,301,0.0,0.0,93,0.00,,,0.00,WSDL version 420,2013-04-18 09:34:00,
2013-04-18 05:39:00,54.7,52.9,27.20,NE,38,0.0,0.0,93,0.00,,,0.00,WSDL version 420,2013-04-18 09:39:00,
2013-04-18 05:44:00,54.9,53.0,27.20,SSE,158,0.0,0.0,93,0.00,,,0.00,WSDL version 420,2013-04-18 09:44:00,
2013-04-18 05:49:00,54.9,53.0,27.20,SW,225,0.0,0.0,93,0.00,,,0.00,WSDL version 420,2013-04-18 09:49:00,
2013-04-18 05:54:00,55.0,53.1,27.20,South,177,0.0,0.0,93,0.00,,,0.00,WSDL version 420,2013-04-18 09:54:00,
2013-04-18 05:59:00,55.0,53.2,27.20,NNW,345,0.0,0.0,93,0.00,,,0.00,WSDL version 420,2013-04-18 09:59:00,
2013-04-18 06:04:00,55.2,53.3,27.20,NNE,15,0.2,2.2,93,0.00,,,0.00,WSDL version 420,2013-04-18 10:04:00,
2013-04-18 06:09:00,55.2,53.3,27.20,NNE,17,0.0,2.2,93,0.00,,,0.00,WSDL version 420,2013-04-18 10:09:00,
2013-04-18 06:14:00,55.2,53.3,27.20,West,263,0.0,0.0,93,0.00,,,0.00,WSDL version 420,2013-04-18 10:14:00,
2013-04-18 06:19:00,55.3,53.4,27.20,NNE,31,0.7,2.0,93,0.00,,,0.00,WSDL version 420,2013-04-18 10:19:00,
2013-04-18 06:24:00,55.3,53.4,27.20,NNW,343,0.0,2.0,93,0.00,,,0.00,WSDL version 420,2013-04-18 10:24:00,
2013-04-18 06:29:00,55.2,53.3,27.20,South,191,0.0,0.0,93,0.00,,,0.00,WSDL version 420,2013-04-18 10:29:00,
2013-04-18 06:34:00,55.2,53.3,27.20,NW,315,0.0,0.0,93,0.00,,,0.00,WSDL version 420,2013-04-18 10:34:00,
2013-04-18 06:39:00,55.4,53.5,27.20,North,8,0.0,1.1,93,0.00,,,0.00,WSDL version 420,2013-04-18 10:39:00,
2013-04-18 06:44:00,55.4,53.5,27.20,South,180,0.0,1.1,93,0.00,,,0.00,WSDL version 420,2013-04-18 10:44:00,
2013-04-18 06:49:00,55.4,53.5,27.20,North,355,0.0,0.0,93,0.00,,,0.00,WSDL version 420,2013-04-18 10:49:00,
2013-04-18 06:54:00,55.6,53.7,27.20,WSW,248,0.0,0.0,93,0.00,,,0.00,WSDL version 420,2013-04-18 10:54:00,
2013-04-18 06:59:00,55.7,53.8,27.20,NW,313,0.0,0.0,93,0.00,,,0.00,WSDL version 420,2013-04-18 10:59:00,
2013-04-18 07:04:00,55.8,53.9,27.20,South,180,0.0,0.0,93,0.00,,,0.00,WSDL version 420,2013-04-18 11:04:00,
2013-04-18 07:09:00,56.0,54.2,27.20,NE,43,0.0,0.0,94,0.00,,,0.00,WSDL version 420,2013-04-18 11:09:00,
2013-04-18 07:14:00,56.6,55.2,27.20,ENE,75,0.2,5.6,96,0.00,,,0.00,WSDL version 420,2013-04-18 11:14:00,
2013-04-18 07:19:00,56.6,55.0,27.20,NW,318,0.2,5.6,94,0.00,,,0.00,WSDL version 420,2013-04-18 11:19:00,
2013-04-18 07:24:00,56.7,55.1,27.20,SSE,163,0.7,2.7,94,0.00,,,0.00,WSDL version 420,2013-04-18 11:24:00,
2013-04-18 07:29:00,56.7,55.1,27.20,East,84,0.0,2.7,94,0.00,,,0.00,WSDL version 420,2013-04-18 11:29:00,
2013-04-18 07:34:00,56.7,55.1,27.20,NE,45,0.0,0.0,94,0.00,,,0.00,WSDL version 420,2013-04-18 11:34:00,
2013-04-18 07:39:00,57.1,55.5,27.20,WSW,248,1.1,2.9,94,0.00,,,0.00,WSDL version 420,2013-04-18 11:39:00,
2013-04-18 07:44:00,57.8,56.5,27.20,West,278,2.8,5.6,96,0.00,,,0.00,WSDL version 420,2013-04-18 11:44:00,
2013-04-18 07:49:00,58.4,57.2,27.20,West,275,3.2,5.6,96,0.00,,,0.00,WSDL version 420,2013-04-18 11:49:00,
2013-04-18 07:59:00,59.3,57.7,27.20,WNW,288,4.3,7.2,93,0.00,,,0.00,WSDL version 420,2013-04-18 11:59:00,
2013-04-18 08:04:00,59.7,57.6,27.20,West,278,2.9,7.2,92,0.00,,,0.00,WSDL version 420,2013-04-18 12:04:00,
2013-04-18 09:56:00,-999.0,-99.9,27.20,North,-999,-999.0,-999.0,-999,-99.99,,,-99.99,WSDL version 420,2013-04-18 13:56:00,
2013-04-18 10:09:00,-999.0,-99.9,27.20,North,-999,-999.0,-999.0,-999,-99.99,,,-99.99,WSDL version 420,2013-04-18 14:09:00,
2013-04-18 10:14:00,-999.0,-99.9,27.20,North,-999,-999.0,-999.0,-999,-99.99,,,-99.99,WSDL version 420,2013-04-18 14:14:00,
2013-04-18 10:21:00,65.8,51.8,27.20,SW,215,1.2,2.9,61,0.00,,,0.00,WSDL version 420,2013-04-18 14:21:00,
2013-04-18 10:26:00,66.0,51.9,27.20,ESE,121,2.3,7.4,60,0.00,,,0.00,WSDL version 420,2013-04-18 14:26:00,
2013-04-18 10:31:00,65.8,50.6,27.20,NW,312,4.0,7.8,59,0.00,,,0.00,WSDL version 420,2013-04-18 14:31:00,
2013-04-18 10:36:00,66.6,50.9,27.23,SSW,208,3.1,7.8,56,0.00,,,0.00,WSDL version 420,2013-04-18 14:36:00,
2013-04-18 10:41:00,66.6,51.0,27.23,North,353,2.0,4.9,59,0.00,,,0.00,WSDL version 420,2013-04-18 14:41:00,
2013-04-18 10:46:00,66.4,50.5,27.23,South,172,3.3,4.7,55,0.00,,,0.00,WSDL version 420,2013-04-18 14:46:00,
2013-04-18 10:51:00,66.1,49.9,27.23,East,82,4.1,10.5,55,0.00,,,0.00,WSDL version 420,2013-04-18 14:51:00,
2013-04-18 10:56:00,66.3,49.9,27.23,North,355,2.0,10.5,56,0.00,,,0.00,WSDL version 420,2013-04-18 14:56:00,
2013-04-18 11:01:00,65.6,48.8,27.23,East,96,6.0,8.5,53,0.00,,,0.00,WSDL version 420,2013-04-18 15:01:00,
2013-04-18 11:06:00,64.9,48.9,27.23,SSE,165,3.8,8.5,58,0.00,,,0.00,WSDL version 420,2013-04-18 15:06:00,
2013-04-18 11:11:00,64.8,49.6,27.23,ENE,63,4.5,8.5,57,0.00,,,0.00,WSDL version 420,2013-04-18 15:11:00,
2013-04-18 11:16:00,64.7,50.1,27.23,NW,315,3.3,7.6,60,0.00,,,0.00,WSDL version 420,2013-04-18 15:16:00,
2013-04-18 11:21:00,64.8,50.6,27.20,NNW,335,1.5,7.6,60,0.00,,,0.00,WSDL version 420,2013-04-18 15:21:00,
2013-04-18 11:26:00,65.3,51.3,27.20,East,96,1.0,3.1,60,0.00,,,0.00,WSDL version 420,2013-04-18 15:26:00,
2013-04-18 11:31:00,65.6,51.5,27.20,NW,321,1.0,2.7,61,0.00,,,0.00,WSDL version 420,2013-04-18 15:31:00,
2013-04-18 11:36:00,65.9,51.7,27.20,East,101,1.0,4.9,60,0.00,,,0.00,WSDL version 420,2013-04-18 15:36:00,
2013-04-18 11:41:00,66.5,51.8,27.20,SW,231,1.1,4.9,58,0.00,,,0.00,WSDL version 420,2013-04-18 15:41:00,
2013-04-18 11:46:00,66.5,51.3,27.20,ENE,60,3.7,4.9,58,0.00,,,0.00,WSDL version 420,2013-04-18 15:46:00,
2013-04-18 11:51:00,66.1,50.4,27.20,South,169,2.4,5.4,58,0.00,,,0.00,WSDL version 420,2013-04-18 15:51:00,
2013-04-18 11:56:00,66.7,51.3,27.20,North,350,3.2,8.7,58,0.00,,,0.00,WSDL version 420,2013-04-18 15:56:00,
2013-04-18 12:01:00,67.6,51.2,27.20,ESE,113,5.2,9.6,55,0.00,,,0.00,WSDL version 420,2013-04-18 16:01:00,
2013-04-18 12:06:00,67.0,50.8,27.20,West,270,2.8,9.6,57,0.00,,,0.00,WSDL version 420,2013-04-18 16:06:00,
2013-04-18 12:11:00,67.8,52.1,27.20,WNW,287,3.2,7.8,57,0.00,,,0.00,WSDL version 420,2013-04-18 16:11:00,
2013-04-18 12:16:00,67.4,50.8,27.20,WSW,248,4.2,8.5,55,0.00,,,0.00,WSDL version 420,2013-04-18 16:16:00,
2013-04-18 12:21:00,66.6,49.9,27.20,ENE,78,4.0,8.5,55,0.00,,,0.00,WSDL version 420,2013-04-18 16:21:00,
2013-04-18 12:26:00,67.0,51.0,27.20,NNE,26,2.8,6.3,57,0.00,,,0.00,WSDL version 420,2013-04-18 16:26:00,
2013-04-18 12:31:00,68.0,52.3,27.20,WNW,298,4.4,7.4,57,0.00,,,0.00,WSDL version 420,2013-04-18 16:31:00,
2013-04-18 12:36:00,68.4,52.2,27.20,WNW,302,3.6,9.4,56,0.00,,,0.00,WSDL version 420,2013-04-18 16:36:00,
2013-04-18 12:41:00,68.5,51.3,27.20,WNW,303,4.5,9.4,55,0.00,,,0.00,WSDL version 420,2013-04-18 16:41:00,
2013-04-18 12:46:00,68.5,50.9,27.20,NE,39,3.6,7.6,53,0.00,,,0.00,WSDL version 420,2013-04-18 16:46:00,
2013-04-18 12:51:00,67.6,50.5,27.20,West,270,4.0,7.4,55,0.00,,,0.00,WSDL version 420,2013-04-18 16:51:00,
2013-04-18 12:56:00,67.8,51.1,27.20,NNW,345,2.4,6.3,55,0.00,,,0.00,WSDL version 420,2013-04-18 16:56:00,
2013-04-18 13:01:00,67.6,50.9,27.20,WNW,301,3.0,5.6,55,0.00,,,0.00,WSDL version 420,2013-04-18 17:01:00,
2013-04-18 13:11:00,67.6,51.1,27.20,WNW,301,4.0,6.5,55,0.00,,,0.00,WSDL version 420,2013-04-18 17:11:00,
2013-04-18 13:16:00,68.5,51.6,27.20,ENE,70,2.1,6.5,53,0.00,,,0.00,WSDL version 420,2013-04-18 17:16:00,
2013-04-18 13:21:00,68.5,51.2,27.20,SSW,194,3.3,6.3,54,0.00,,,0.00,WSDL version 420,2013-04-18 17:21:00,
2013-04-18 13:26:00,68.4,51.1,27.20,NE,50,3.4,10.1,53,0.00,,,0.00,WSDL version 420,2013-04-18 17:26:00,
2013-04-18 13:31:00,68.1,49.9,27.20,SW,223,5.1,10.1,52,0.00,,,0.00,WSDL version 420,2013-04-18 17:31:00,
2013-04-18 13:36:00,68.0,49.9,27.20,ESE,118,7.7,10.7,53,0.00,,,0.00,WSDL version 420,2013-04-18 17:36:00,
2013-04-18 13:41:00,67.3,49.5,27.20,NNE,18,2.5,10.7,54,0.00,,,0.00,WSDL version 420,2013-04-18 17:41:00,
2013-04-18 13:46:00,68.5,50.9,27.20,SE,143,4.6,8.7,52,0.00,,,0.00,WSDL version 420,2013-04-18 17:46:00,
2013-04-18 13:51:00,67.7,49.5,27.20,East,95,3.7,7.4,52,0.00,,,0.00,WSDL version 420,2013-04-18 17:51:00,
2013-04-18 13:56:00,68.1,50.3,27.20,NW,304,6.5,10.5,53,0.00,,,0.00,WSDL version 420,2013-04-18 17:56:00,
2013-04-18 15:07:00,-999.0,-99.9,27.17,WNW,293,4.9,5.4,-999,-99.99,,,-99.99,WSDL version 420,2013-04-18 19:07:00,
2013-04-18 15:50:00,-999.0,-99.9,27.17,North,-999,-999.0,-999.0,-999,-99.99,,,-99.99,WSDL version 420,2013-04-18 19:50:00,